Date String (YYYY-MM-DD hh:mm:ss) UTC,Instrument flags,Ambient pressure (hPa),Sample flow (lpm),Bypass flow (lpm),Sample temperature (°C),Ambient temperature (°C),ASC tube jacket temperature (°C),LED temperature (°C),Box temperature (°C),Sample RH (%),Span deviation,Mass concentration (μg/m³),Mass concentration (μg/m³),Mass concentration (μg/m³)
DateTimeUTC,F1_M11,P_M11,Q1_M11,Q2_M11,T1_M11,T2_M11,T3_M11,T4_M11,T5_M11,U1_M11,ZSPAN_M11,X0_M11,X2_M11,X1_M11
2022-04-14 00:00:00,,0820.3,5.01,0.00,21.7,20.8,00.0,30.8,23.3,07.4,0000.0,0003.24,0001.84,0001.10
2022-04-14 00:01:00,,0820.2,5.00,0.00,21.6,20.7,00.0,30.8,23.3,07.5,0000.0,0003.31,0001.84,0001.11
2022-04-14 00:02:00,,0820.2,4.99,0.00,21.6,20.7,00.0,30.7,23.2,07.7,0000.0,0003.53,0001.85,0001.12
2022-04-14 00:03:00,,0820.2,4.99,0.00,21.5,20.6,00.0,30.7,23.1,08.0,0000.0,0003.93,0001.90,0001.13
2022-04-14 00:04:00,,0820.3,5.00,0.00,21.4,20.5,00.0,30.7,23.0,08.2,0000.0,0003.99,0001.92,0001.12
2022-04-14 00:05:00,,0820.3,5.01,0.00,21.4,20.4,00.0,30.6,23.0,08.3,0000.0,0004.00,0001.89,0001.13
2022-04-14 00:06:00,,0820.3,5.00,0.00,21.3,20.3,00.0,30.6,22.9,08.2,0000.0,0003.98,0001.88,0001.13
2022-04-14 00:07:00,,0820.3,5.00,0.00,21.3,20.2,00.0,30.6,22.8,08.2,0000.0,0004.02,0001.90,0001.12
2022-04-14 00:08:00,,0820.3,5.00,0.00,21.2,20.3,00.0,30.5,22.8,08.2,0000.0,0006.90,0001.95,0001.12
2022-04-14 00:09:00,,0820.3,5.00,0.00,21.3,21.1,00.0,30.5,23.0,08.0,0000.0,0007.64,0001.87,0001.11
2022-04-14 00:10:00,,0820.3,5.00,0.00,21.5,22.1,00.0,30.6,23.4,08.0,0000.0,0007.65,0001.85,0001.09
2022-04-14 00:11:00,,0820.4,4.99,0.00,21.7,23.0,00.0,30.6,23.7,08.0,0000.0,0007.66,0001.85,0001.08
2022-04-14 00:12:00,,0820.3,4.99,0.00,21.7,22.8,00.0,30.7,23.7,07.9,0000.0,0007.54,0001.79,0001.07
2022-04-14 00:13:00,,0820.3,5.00,0.00,21.7,22.3,00.0,30.7,23.5,07.8,0000.0,0007.55,0001.80,0001.06
2022-04-14 00:14:00,,0820.3,5.00,0.00,21.7,21.9,00.0,30.7,23.4,07.9,0000.0,0007.34,0001.76,0001.05
2022-04-14 00:15:00,,0820.3,5.00,0.00,21.6,21.5,00.0,30.6,23.2,08.0,0000.0,0007.23,0001.74,0001.07
2022-04-14 00:16:00,,0820.2,5.00,0.00,21.5,21.2,00.0,30.6,23.1,08.0,0000.0,0007.20,0001.77,0001.07
2022-04-14 00:17:00,,0820.2,5.01,0.00,21.5,20.9,00.0,30.6,23.0,08.0,0000.0,0007.43,0001.82,0001.07
2022-04-14 00:18:00,,0820.2,5.01,0.00,21.4,20.8,00.0,30.6,23.0,08.0,0000.0,0007.41,0001.83,0001.07
2022-04-14 00:19:00,,0820.2,4.99,0.00,21.4,20.7,00.0,30.6,23.0,07.9,0000.0,0005.59,0001.75,0001.06
2022-04-14 00:20:00,,0820.2,5.00,0.00,21.3,20.5,00.0,30.5,22.9,07.8,0000.0,0003.74,0001.76,0001.06
2022-04-14 00:21:00,,0820.3,5.01,0.00,21.3,20.5,00.0,30.5,22.9,07.6,0000.0,0003.76,0001.80,0001.07
2022-04-14 00:22:00,,0820.2,5.00,0.00,21.3,20.5,00.0,30.5,23.0,07.6,0000.0,0004.06,0001.78,0001.08
2022-04-14 00:23:00,,0820.2,4.99,0.00,21.3,20.5,00.0,30.5,23.0,07.9,0000.0,0004.29,0001.80,0001.09
2022-04-14 00:24:00,,0820.3,5.02,0.00,21.3,20.5,00.0,30.5,22.9,08.0,0000.0,0004.42,0001.77,0001.10
2022-04-14 00:25:00,,0820.3,5.01,0.00,21.3,20.5,00.0,30.4,22.9,08.0,0000.0,0004.30,0001.76,0001.11
2022-04-14 00:26:00,,0820.3,5.01,0.00,21.3,20.5,00.0,30.4,22.9,08.1,0000.0,0004.28,0001.76,0001.10
2022-04-14 00:27:00,,0820.4,5.00,0.00,21.3,20.5,00.0,30.4,23.0,08.1,0000.0,0004.38,0001.81,0001.11
2022-04-14 00:28:00,,0820.4,5.01,0.00,21.3,20.5,00.0,30.4,23.0,08.2,0000.0,0005.18,0001.81,0001.11
2022-04-14 00:29:00,,0820.4,5.00,0.00,21.3,20.5,00.0,30.4,23.0,08.4,0000.0,0005.48,0001.81,0001.12
2022-04-14 00:30:00,,0820.5,4.98,0.00,21.3,20.5,00.0,30.4,23.0,08.4,0000.0,0005.69,0001.91,0001.13
2022-04-14 00:31:00,,0820.5,5.00,0.00,21.3,20.5,00.0,30.4,23.0,08.4,0000.0,0005.52,0001.89,0001.13
2022-04-14 00:32:00,,0820.5,5.00,0.00,21.3,20.5,00.0,30.4,23.0,08.1,0000.0,0005.28,0001.87,0001.13
2022-04-14 00:33:00,,0820.5,5.01,0.00,21.3,20.5,00.0,30.4,23.0,08.0,0000.0,0005.13,0001.96,0001.14
2022-04-14 00:34:00,,0820.5,5.00,0.00,21.3,20.5,00.0,30.4,23.0,08.2,0000.0,0005.01,0001.97,0001.14
2022-04-14 00:35:00,,0820.6,5.00,0.00,21.3,20.5,00.0,30.4,23.0,08.3,0000.0,0004.93,0001.99,0001.12
2022-04-14 00:36:00,,0820.5,5.00,0.00,21.3,20.6,00.0,30.4,23.0,08.1,0000.0,0005.11,0002.01,0001.13
2022-04-14 00:37:00,,0820.5,5.01,0.00,21.4,21.2,00.0,30.4,23.2,07.8,0000.0,0005.28,0002.03,0001.13
2022-04-14 00:38:00,,0820.5,5.00,0.00,21.5,22.2,00.0,30.5,23.5,07.7,0000.0,0005.62,0002.03,0001.13
2022-04-14 00:39:00,,0820.5,4.99,0.00,21.7,22.9,00.0,30.5,23.8,07.6,0000.0,0005.15,0002.00,0001.13
2022-04-14 00:40:00,,0820.5,5.01,0.00,21.8,22.7,00.0,30.5,23.8,07.6,0000.0,0004.86,0001.98,0001.14
2022-04-14 00:41:00,,0820.5,5.00,0.00,21.8,22.4,00.0,30.6,23.8,07.9,0000.0,0004.71,0001.91,0001.13
2022-04-14 00:42:00,,0820.4,4.99,0.00,21.8,22.1,00.0,30.6,23.7,07.8,0000.0,0004.82,0001.94,0001.13
2022-04-14 00:43:00,,0820.4,4.99,0.00,21.8,21.9,00.0,30.6,23.6,07.8,0000.0,0005.02,0002.01,0001.13
2022-04-14 00:44:00,,0820.4,5.01,0.00,21.8,21.7,00.0,30.6,23.6,07.8,0000.0,0005.23,0001.94,0001.12
2022-04-14 00:45:00,,0820.4,5.00,0.00,21.8,21.5,00.0,30.6,23.5,08.0,0000.0,0005.19,0001.91,0001.10
2022-04-14 00:46:00,,0820.4,4.99,0.00,21.8,21.4,00.0,30.7,23.5,07.9,0000.0,0005.13,0001.92,0001.10
2022-04-14 00:47:00,,0820.4,5.00,0.00,21.8,21.3,00.0,30.7,23.5,08.0,0000.0,0005.05,0001.90,0001.09
2022-04-14 00:48:00,,0820.5,5.01,0.00,21.8,21.2,00.0,30.7,23.5,08.3,0000.0,0005.06,0001.91,0001.09
2022-04-14 00:49:00,,0820.5,4.99,0.00,21.7,21.1,00.0,30.7,23.4,08.3,0000.0,0005.52,0001.89,0001.09
2022-04-14 00:50:00,,0820.5,5.00,0.00,21.7,21.1,00.0,30.7,23.4,08.3,0000.0,0005.18,0001.88,0001.09
2022-04-14 00:51:00,,0820.5,5.00,0.00,21.7,21.0,00.0,30.7,23.4,08.4,0000.0,0006.09,0001.90,0001.09
2022-04-14 00:52:00,,0820.5,4.99,0.00,21.7,21.0,00.0,30.7,23.4,08.4,0000.0,0006.10,0001.90,0001.10
2022-04-14 00:53:00,,0820.6,5.00,0.00,21.7,21.0,00.0,30.7,23.4,08.5,0000.0,0005.95,0001.89,0001.11
2022-04-14 00:54:00,,0820.6,5.01,0.00,21.7,20.9,00.0,30.7,23.4,08.6,0000.0,0005.82,0001.80,0001.11
2022-04-14 00:55:00,,0820.6,4.99,0.00,21.7,20.9,00.0,30.7,23.3,08.6,0000.0,0005.69,0001.80,0001.11
2022-04-14 00:56:00,,0820.5,5.00,0.00,21.7,20.9,00.0,30.7,23.3,08.5,0000.0,0005.53,0001.81,0001.11
2022-04-14 00:57:00,,0820.6,5.00,0.00,21.7,20.8,00.0,30.7,23.3,08.4,0000.0,0005.64,0001.83,0001.11
2022-04-14 00:58:00,,0820.6,5.00,0.00,21.7,20.8,00.0,30.7,23.3,08.4,0000.0,0005.66,0001.84,0001.11
2022-04-14 00:59:00,,0820.6,5.00,0.00,21.7,20.8,00.0,30.7,23.3,08.3,0000.0,0005.66,0001.79,0001.10
